Showing default

HAWK-10B, 60545

Orbit data source: Space-Track

HAWK-10B, 60545 is a payload satellite owned by HawkEye 360 (US) in SSO that was launched on Fri, 16 Aug 2024 UTC via an FALCON 9 launch vehicle from the Air Force Western Test Range (AFWTR). Payload-class satellites include a variety of spacecraft equipped with specific instruments for various scientific and technological missions. These include communications satellites like Starlink; space stations such as the ISS; scientific satellites like the Hubble; Earth observation satellites from companies like Planet Labs, Umbra, and HawkEye 360; GPS; miniature CubeSats for education and research; and military/defense satellites.

Loading next visibility...
Identifier
60545, 2024-149CF
Orbit
SSO
Country
Flag of USUS
Related business
Manufacturer
UTIAS-SFL
Mission
Operational Commercial Sigint
Bus & Motor
HAWK2G, Unknown motor
Mass
31 kg wet, 30 kg dry
Launch date (UTC)
2024-08-16 (2 years ago)
Launch vehicle
FALCON 9
Launch site
Air Force Western Test Range (AFWTR)
Object type
Payload
Rocket body
Debris
Shape & HBR
Box + 2 Pan, 1.0 m
Radar Cross Section
0.240 m², Medium (>0.1 m² and < 1m²)

Expand to show TLE details & history
Last TLE update: 7 hours ago

TLE from 7 hours ago
0 HAWK-10B
1 60545U 24149CF  26129.78812060  .00000577  00000-0  55940-4 0  9998
2 60545  97.6818 205.7551 0004534 207.5475 152.5507 14.96394802 94242
Epoch: 2026-05-09T18:54Z
TLE epoch observation values (Epoch: 2026-05-09T18:54:53.619Z)
Latitude
-0.00003°
Longitude
54.43116°
Altitude
583.897 km
Speed
7.567 km/s
True Right ascension
13h 43m 01s
True Declination
0° 00' 00"
Sunlit
Object was in full shadow at epoch
Visualization orbit readout
Latitude
Unknown
Longitude
Unknown
Altitude
Unknown
Speed
Unknown
Apparent Right ascension
Unknown
Apparent Declination
Unknown
Sunlit
N/A
Visualization observer readout
Local Sidereal Time
09:45:49
Azimuth
Unknown
Elevation
Unknown
Doppler factor
Unknown
Orbital elements
Apogee altitude
578.209 km
Perigee altitude
571.903 km
Semi-major axis
6,953.193 km
Eccentricity
0.00045
Inclination
97.6818°
RAAN
205.7551°
Arg. of periapsis
207.5475°
True anomaly
152.57464°
Mean anomaly
152.5507°
Eccentric anomaly
152.56267°
Mean motion
3.7434 °/min
Orbital period
96.17 mins
BSTAR
0.00005594
Loading maneuver chart data...
Computing Atmospheric mass density...
Loading historical data...
Loading historical data...
Loading historical data...
Loading historical data...
Loading historical data...
Loading historical data...
Loading historical data...

Documentation

Showing up to 5 results
|